Marshfield, WI

8:10 AM CST on November 20, 2019 (GMT -0600)
Marshfield Municipal

Weather History for KMFI - September, 2019

Change the Weather History Date:

Thursday, September 19, 2019

  Actual Average Record
Temperature  
Mean Temperature 70 °F -  
Max Temperature 77 °F 70 °F 90 °F (1948)
Min Temperature 63 °F 47 °F 27 °F (1929)
Cooling Degree Days 5    
Growing Degree Days 20 (Base 50)    
Moisture  
Dew Point 66 °F    
Average Humidity 89    
Maximum Humidity 97    
Minimum Humidity 64    
Precipitation  
Precipitation 0.59 in - - ()
Sea Level Pressure  
Sea Level Pressure 30.02 in    
Wind  
Wind Speed 8 mph (SW)    
Max Wind Speed 18 mph    
Max Gust Speed 28 mph    
Visibility 7 miles    
Events Fog , Rain , Thunderstorm    
Averages and records for this station are not official NWS values.
T = Trace of Precipitation, MM = Missing Value Source: NWS Daily Summary

Daily Weather History Graph

Daily Weather History Graph

Search for Another Location

Airport or City:

Astronomy

Sep. 19, 2019 Rise Set
Actual Time 6:44 AM CDT 7:04 PM CDT
Civil Twilight 6:14 AM CDT 7:33 PM CDT
Nautical Twilight 5:40 AM CDT 8:07 PM CDT
Astronomical Twilight 5:05 AM CDT 8:43 PM CDT
Moon 10:01 PM CDT (9/19) 11:59 AM CDT (9/19)
Length of Visible Light 13h 18m
Length of Day
12h 20m
Waning Gibbous, 74% of the Moon is Illuminated
Sep 19
Waning Gibbous
Sep 21
Last Quarter
Sep 28
New
Oct 5
First Quarter
Oct 13
Full

Hourly Weather History & Observations

Time (CDT) Temp. Dew Point Humidity Pressure Visibility Wind Dir Wind Speed Gust Speed Precip Events Conditions
12:54 AM 71.1 °F 68.0 °F 90% 29.98 in 8.0 mi South 10.4 mph - N/A   Overcast
1:54 AM 71.1 °F 66.9 °F 87% 29.98 in 8.0 mi SSW 9.2 mph - N/A   Overcast
2:54 AM 71.1 °F 66.9 °F 87% 29.97 in 8.0 mi SSW 5.8 mph - 0.00 in   Overcast
3:50 AM 69.8 °F 66.2 °F 88% 29.98 in 5.0 mi SSW 9.2 mph - 0.00 in Rain , Thunderstorm Thunderstorms and Rain
4:01 AM 70.0 °F 68.0 °F 93% 29.98 in 2.5 mi SSW 6.9 mph - 0.06 in Rain Rain
4:10 AM 70.0 °F 68.0 °F 93% 29.97 in 3.0 mi South 8.1 mph - 0.09 in Rain Light Rain
4:54 AM 69.1 °F 66.9 °F 93% 29.95 in 6.0 mi SSW 9.2 mph - 0.09 in   Partly Cloudy
5:18 AM 70.0 °F 68.0 °F 93% 29.98 in 6.0 mi SSW 8.1 mph - N/A   Mostly Cloudy
5:30 AM 70.0 °F 68.0 °F 93% 29.99 in 6.0 mi SSW 9.2 mph - N/A   Overcast
5:39 AM 70.0 °F 68.0 °F 93% 29.99 in 6.0 mi South 9.2 mph - N/A   Overcast
5:46 AM 70.0 °F 68.0 °F 93% 29.99 in 6.0 mi South 9.2 mph - N/A   Overcast
5:54 AM 70.0 °F 66.9 °F 90% 29.97 in 7.0 mi SSW 6.9 mph 17.3 mph N/A   Overcast
6:01 AM 70.0 °F 66.9 °F 90% 30.00 in 8.0 mi SSW 8.1 mph - N/A   Overcast
6:20 AM 69.1 °F 66.9 °F 93% 30.01 in 8.0 mi SW 6.9 mph - N/A Thunderstorm Overcast
6:36 AM 69.1 °F 66.9 °F 93% 30.01 in 7.0 mi SSW 9.2 mph - 0.00 in Rain , Thunderstorm Light Thunderstorms and Rain
6:45 AM 69.1 °F 66.9 °F 93% 30.02 in 9.0 mi SW 6.9 mph - 0.00 in Rain , Thunderstorm Light Rain
6:52 AM 69.8 °F 66.2 °F 88% 30.02 in 8.0 mi SW 10.4 mph - 0.00 in Thunderstorm Overcast
6:54 AM 69.1 °F 66.9 °F 93% 30.01 in 7.0 mi SW 13.8 mph 20.7 mph 0.00 in Rain , Thunderstorm Light Rain
7:02 AM 69.1 °F 66.9 °F 93% 30.03 in 4.0 mi WSW 12.7 mph - 0.00 in Rain , Thunderstorm Light Thunderstorms and Rain
7:13 AM 69.1 °F 66.9 °F 93% 30.03 in 1.8 mi WSW 18.4 mph 27.6 mph 0.12 in Rain , Thunderstorm Heavy Thunderstorms and Rain
7:21 AM 68.0 °F 66.0 °F 93% 30.03 in 1.2 mi SW 12.7 mph 27.6 mph 0.27 in Rain , Thunderstorm Heavy Thunderstorms and Rain
7:27 AM 68.0 °F 66.0 °F 93% 30.04 in 2.0 mi SW 9.2 mph 23.0 mph 0.30 in Rain , Thunderstorm Heavy Thunderstorms and Rain
7:36 AM 68.0 °F 64.9 °F 90% 30.05 in 5.0 mi West 10.4 mph - 0.31 in Rain , Thunderstorm Thunderstorms and Rain
7:54 AM 66.9 °F 64.9 °F 93% 30.04 in 4.0 mi WSW 10.4 mph - 0.35 in Rain , Thunderstorm Light Rain
8:10 AM 66.9 °F 64.9 °F 93% 30.04 in 3.0 mi SW 8.1 mph - 0.02 in Rain , Thunderstorm Thunderstorms and Rain
8:20 AM 66.9 °F 64.9 °F 93% 30.05 in 2.5 mi WSW 6.9 mph - 0.05 in Rain , Thunderstorm Thunderstorms and Rain
8:30 AM 66.9 °F 64.9 °F 93% 30.04 in 3.0 mi WSW 5.8 mph - 0.06 in Rain Rain
8:54 AM 66.9 °F 64.9 °F 93% 30.04 in 3.0 mi Calm Calm - 0.08 in Rain Rain
9:43 AM 66.9 °F 64.9 °F 93% 30.06 in 1.8 mi NW 4.6 mph - 0.05 in Rain Heavy Rain
9:51 AM 66.2 °F 64.4 °F 94% 30.07 in 1.8 mi NW 9.2 mph - 0.07 in Rain Rain
9:54 AM 66.9 °F 64.0 °F 90% 30.06 in 3.0 mi West 8.1 mph - 0.07 in Rain Light Rain
10:05 AM 66.9 °F 64.9 °F 93% 30.07 in 10.0 mi SW 8.1 mph - 0.00 in Rain Light Rain
10:40 AM 66.9 °F 64.9 °F 93% 30.04 in 10.0 mi West 8.1 mph - 0.00 in Rain Light Rain
10:54 AM 66.9 °F 64.9 °F 93% 30.05 in 10.0 mi WNW 8.1 mph - 0.00 in Rain Light Rain
11:11 AM 68.0 °F 64.9 °F 90% 30.06 in 10.0 mi WNW 6.9 mph - 0.00 in   Overcast
11:21 AM 68.0 °F 64.9 °F 90% 30.06 in 10.0 mi NW 9.2 mph - 0.00 in Rain Light Rain
11:54 AM 68.0 °F 66.0 °F 93% 30.05 in 8.0 mi West 6.9 mph - 0.00 in Rain Light Rain
12:54 PM 72.0 °F 66.0 °F 81% 30.04 in 10.0 mi WSW 5.8 mph - 0.00 in   Mostly Cloudy
1:54 PM 73.9 °F 66.0 °F 76% 30.03 in 10.0 mi North - - N/A   Mostly Cloudy
2:14 PM 75.9 °F 64.9 °F 69% 30.03 in 10.0 mi South 6.9 mph - N/A   Scattered Clouds
2:54 PM 75.9 °F 64.9 °F 69% 30.01 in 10.0 mi South 4.6 mph - N/A   Partly Cloudy
3:54 PM 77.0 °F 64.9 °F 66% 30.00 in 10.0 mi South 6.9 mph - N/A   Clear
4:54 PM 77.0 °F 64.0 °F 64% 30.01 in 10.0 mi South 6.9 mph - N/A   Partly Cloudy
5:54 PM 73.9 °F 64.9 °F 73% 30.01 in 10.0 mi South 6.9 mph - N/A   Clear
6:54 PM 70.0 °F 64.9 °F 84% 30.03 in 10.0 mi South 5.8 mph - N/A   Clear
7:54 PM 68.0 °F 64.0 °F 87% 30.05 in 10.0 mi South 4.6 mph - N/A   Clear
8:54 PM 66.0 °F 64.0 °F 93% 30.07 in 10.0 mi Calm Calm - N/A   Clear
9:54 PM 64.9 °F 63.0 °F 93% 30.07 in 10.0 mi SSE 3.5 mph - N/A   Clear
10:54 PM 64.0 °F 63.0 °F 96% 30.06 in 10.0 mi South 5.8 mph - N/A   Clear
11:39 PM 63.0 °F 62.1 °F 97% 30.07 in 1.5 mi SW 3.5 mph - N/A   Clear
11:54 PM 63.0 °F 62.1 °F 97% 30.07 in 0.2 mi Calm Calm - N/A Fog Fog